Location: Munkebjergskolens Observatorium
(55.3864°N, 10.3987°E)
Time: 17:24:11
(UTC+02:00)

NOAA 18 - Pass Details

Date: 21 March 2023
Orbit: 838 x 860 km, 98.9° (Epoch: 02 June)

Event Time Altitude Azimuth Distance (km) Brightness Sun altitude
Exits shadow 22:42:14 43° 258° (WSW) 1,199 6.0 -30.4°
Maximum altitude 22:42:24 43° 262° (W) 1,198 6.0 -30.4°
Drops below altitude 10° 22:47:42 10° 334° (NNW) 2,511 8.6 -30.7°
Sets 22:50:13 0° 341° (NNW) 3,453 9.5 -30.9°
